Terug naar catalogus

WGS F1

USA 195

ActiefMilitairGEO
NORAD 32258·PAYLOAD·🇺🇸 United States

Gelanceerd Oct 11, 2007 vanaf Cape Canaveral Space Force Station

Loading…

TLE

VersSource: Space-Track

Epoch: Sep 14, 2026, 15:32 UTC

1 32258U 07046A   26257.64767255 -.00000275  00000-0  00000-0 0  9996
2 32258   0.0121 128.4897 0000537  42.1150  13.6655  1.00272503 53232

Volg WGS F1 in realtime met AllMySat

Download on the App Store